Weather History for KCLE - December, 2013

Change the Weather History Date:

Sunday, December 15, 2013

  Actual Average Record
Temperature  
Mean Temperature 24 °F 32 °F  
Max Temperature 34 °F 38 °F 67 °F (1971)
Min Temperature 13 °F 26 °F -1 °F (1958)
Degree Days  
Heating Degree Days 41 33  
Month to date heating degree days 501 453  
Since 1 July heating degree days 1650 1548  
Cooling Degree Days 0 0  
Month to date cooling degree days 0 0  
Year to date cooling degree days 889 817  
Moisture  
Dew Point 19 °F    
Average Humidity 78    
Maximum Humidity 89    
Minimum Humidity 67    
Precipitation  
Precipitation 0.01 in 0.09 in - ()
Month to date precipitation 0.89 1.53  
Year to date precipitation 38.64 37.57  
Snow  
Snow 0.10 in 0.50 in - ()
Month to date snowfall 10.3 5.9  
Since 1 July snowfall 15.0 10.4  
Snow Depth 6.00 in    
Sea Level Pressure  
Sea Level Pressure 29.88 in    
Wind  
Wind Speed 17 mph (WSW)    
Max Wind Speed 28 mph    
Max Gust Speed 36 mph    
Visibility 6 miles    
Events Snow    
T = Trace of Precipitation, MM = Missing Value Source: NWS Daily Summary

Daily Weather History Graph

Daily Weather History Graph

Search for Another Location

Airport or City:

Trip Planner

Search our weather history database for the weather conditions in past years. The results will help you decide how hot, cold, wet, or windy it might be!

Date:

Astronomy

Dec. 15, 2013 Rise Set
Actual Time 7:46 AM EST 4:58 PM EST
Civil Twilight 7:15 AM EST 5:30 PM EST
Nautical Twilight 6:40 AM EST 6:04 PM EST
Astronomical Twilight 6:06 AM EST 6:38 PM EST
Moon 4:02 PM EST (12/15) 6:00 AM EST (12/15)
Length of Visible Light 10h 14m
Length of Day
9h 12m
Waxing Gibbous, 97% of the Moon is Illuminated
Dec 15
Waxing Gibbous
Dec 17
Full
Dec 25
Last Quarter
Jan 1
New
Jan 7
First Quarter

Hourly Weather History & Observations

Time (EST) Temp. Windchill Dew Point Humidity Pressure Visibility Wind Dir Wind Speed Gust Speed Precip Events Conditions
12:02 AM 33.1 °F 26.9 °F 30.9 °F 92% 29.69 in 1.2 mi West 6.9 mph - N/A   Overcast
12:14 AM 34.0 °F 28.0 °F 30.9 °F 89% 29.70 in 0.8 mi West 6.9 mph - 0.00 in   Overcast
12:47 AM 33.8 °F 25.8 °F 30.2 °F 87% 29.70 in 1.2 mi West 10.4 mph - 0.00 in   Overcast
12:51 AM 34.0 °F 24.6 °F 30.9 °F 89% 29.73 in 1.5 mi NW 13.8 mph - 0.00 in   Overcast
12:58 AM 33.1 °F 23.4 °F 30.0 °F 89% 29.71 in 3.0 mi NNW 13.8 mph - N/A   Overcast
1:08 AM 33.1 °F 21.9 °F 30.0 °F 89% 29.72 in 3.0 mi NNW 18.4 mph 25.3 mph N/A   Overcast
1:16 AM 32.0 °F 21.2 °F 28.9 °F 88% 29.72 in 1.8 mi NNW 16.1 mph - 0.01 in   Overcast
1:31 AM 30.9 °F 19.8 °F 28.0 °F 89% 29.73 in 2.5 mi NW 16.1 mph - 0.01 in Snow Light Snow
1:48 AM 30.2 °F 18.9 °F 26.6 °F 86% 29.74 in 4.0 mi NW 16.1 mph - 0.01 in Snow Light Snow
1:51 AM 28.9 °F 17.7 °F 26.1 °F 89% 29.77 in 4.0 mi WNW 15.0 mph - 0.01 in Snow Light Snow
2:11 AM 28.0 °F 16.1 °F 25.0 °F 88% 29.76 in 8.0 mi WNW 16.1 mph 23.0 mph 0.00 in   Overcast
2:51 AM 27.0 °F 15.2 °F 23.0 °F 85% 29.81 in 9.0 mi NW 15.0 mph 21.9 mph 0.00 in   Overcast
3:51 AM 26.1 °F 16.2 °F 21.9 °F 84% 29.83 in 10.0 mi WNW 10.4 mph - N/A   Overcast
4:51 AM 26.1 °F 14.5 °F 21.9 °F 84% 29.85 in 10.0 mi West 13.8 mph - N/A   Overcast
5:51 AM 24.1 °F 11.0 °F 19.9 °F 84% 29.88 in 9.0 mi WSW 16.1 mph - N/A   Overcast
6:51 AM 23.0 °F 10.6 °F 19.0 °F 85% 29.89 in 10.0 mi WSW 13.8 mph - N/A   Overcast
7:23 AM 23.0 °F 10.6 °F 19.0 °F 85% 29.87 in 10.0 mi WSW 13.8 mph - N/A   Overcast
7:51 AM 23.0 °F 11.1 °F 18.0 °F 81% 29.90 in 7.0 mi WSW 12.7 mph - 0.00 in Snow Light Snow
8:21 AM 23.0 °F 11.1 °F 18.0 °F 81% 29.87 in 5.0 mi WSW 12.7 mph - 0.00 in Snow Light Snow
8:51 AM 23.0 °F 11.7 °F 18.0 °F 81% 29.91 in 5.0 mi WSW 11.5 mph - 0.00 in Snow Light Snow
9:01 AM 23.0 °F 11.7 °F 18.0 °F 81% 29.88 in 4.0 mi WSW 11.5 mph - 0.00 in Snow Light Snow
9:25 AM 23.0 °F 11.1 °F 18.0 °F 81% 29.88 in 2.5 mi SW 12.7 mph - 0.00 in Snow Light Snow
9:30 AM 23.0 °F 11.1 °F 18.0 °F 81% 29.88 in 3.0 mi SW 12.7 mph - 0.00 in Snow Light Snow
9:48 AM 23.0 °F 10.1 °F 19.4 °F 86% 29.88 in 4.0 mi WSW 15.0 mph - 0.00 in Snow Light Snow
9:51 AM 23.0 °F 9.6 °F 18.0 °F 81% 29.91 in 4.0 mi WSW 16.1 mph - 0.00 in Snow Light Snow
10:12 AM 24.1 °F 13.7 °F 19.0 °F 81% 29.89 in 2.0 mi SW 10.4 mph - 0.00 in Snow Light Snow
10:40 AM 25.0 °F 12.6 °F 19.0 °F 78% 29.89 in 4.0 mi SW 15.0 mph - 0.00 in Snow Light Snow
10:51 AM 25.0 °F 13.6 °F 19.9 °F 81% 29.92 in 3.0 mi SW 12.7 mph - 0.00 in Snow Light Snow
11:09 AM 26.1 °F 14.5 °F 19.9 °F 78% 29.89 in 4.0 mi SW 13.8 mph - 0.00 in Snow Light Snow
11:51 AM 27.0 °F 15.2 °F 21.0 °F 78% 29.89 in 2.5 mi SW 15.0 mph - 0.00 in Snow Light Snow
12:25 PM 27.0 °F 12.8 °F 21.0 °F 78% 29.85 in 3.0 mi WSW 21.9 mph 28.8 mph 0.00 in Snow Light Snow
12:51 PM 26.1 °F 10.7 °F 19.9 °F 78% 29.88 in 4.0 mi WSW 25.3 mph - 0.00 in   Haze
12:58 PM 26.1 °F 11.0 °F 19.0 °F 75% 29.85 in 4.0 mi WSW 24.2 mph 35.7 mph 0.00 in Snow Light Snow
1:51 PM 23.0 °F 8.0 °F 16.0 °F 74% 29.89 in 4.0 mi WSW 20.7 mph 31.1 mph 0.00 in Snow Light Snow
2:24 PM 23.0 °F 8.7 °F 14.0 °F 68% 29.85 in 7.0 mi SW 18.4 mph 29.9 mph 0.00 in Snow Light Snow
2:51 PM 21.9 °F 5.5 °F 14.0 °F 72% 29.90 in 8.0 mi WSW 24.2 mph 29.9 mph 0.00 in   Overcast
3:44 PM 21.0 °F 4.6 °F 12.9 °F 71% 29.89 in 7.0 mi WSW 23.0 mph 33.4 mph N/A   Overcast
3:51 PM 21.0 °F 5.0 °F 12.9 °F 71% 29.94 in 8.0 mi WSW 21.9 mph 33.4 mph N/A   Overcast
4:31 PM 19.9 °F 2.8 °F 12.0 °F 71% 29.93 in 7.0 mi WSW 24.2 mph 28.8 mph N/A   Overcast
4:51 PM 19.9 °F 4.3 °F 12.0 °F 71% 29.97 in 9.0 mi WSW 19.6 mph 28.8 mph N/A   Overcast
5:51 PM 19.0 °F 3.2 °F 10.0 °F 68% 29.99 in 9.0 mi WSW 19.6 mph 29.9 mph N/A   Mostly Cloudy
6:51 PM 17.1 °F 0.6 °F 9.0 °F 71% 30.02 in 10.0 mi SW 19.6 mph 26.5 mph N/A   Mostly Cloudy
7:51 PM 16.0 °F -0.9 °F 8.1 °F 71% 30.04 in 10.0 mi WSW 19.6 mph - N/A   Scattered Clouds
8:51 PM 16.0 °F -0.4 °F 8.1 °F 71% 30.06 in 10.0 mi WSW 18.4 mph 26.5 mph N/A   Mostly Cloudy
9:51 PM 15.1 °F -2.0 °F 7.0 °F 70% 30.08 in 10.0 mi WSW 19.6 mph - N/A   Partly Cloudy
10:51 PM 14.0 °F -1.4 °F 6.1 °F 71% 30.09 in 10.0 mi WSW 15.0 mph - N/A   Partly Cloudy
11:51 PM 14.0 °F 0.5 °F 6.1 °F 71% 30.10 in 10.0 mi WSW 11.5 mph - N/A   Scattered Clouds